STARLINK-35927, 66624

Orbit data source: Space-Track

STARLINK-35927, 66624 is a payload satellite owned by SpaceX/Seattle (US) in LEO that was launched on Sun, 23 Nov 2025 UTC via an FALCON 9 launch vehicle from the Air Force Western Test Range (AFWTR). Payload-class satellites include a variety of spacecraft equipped with specific instruments for various scientific and technological missions. These include communications satellites like Starlink; space stations such as the ISS; scientific satellites like the Hubble; Earth observation satellites from companies like Planet Labs, Umbra, and HawkEye 360; GPS; miniature CubeSats for education and research; and military/defense satellites.

Loading next visibility...
Identifier
66624, 2025-271H
Orbit
LEO
Country
Flag of USUS
Related business
Manufacturer
SpaceX/Seattle
Mission
Operational Commercial Communications
Bus & Motor
STARLINK V2MO, Unknown motor
Mass
575 kg wet, ~530 kg dry
Launch date (UTC)
2025-11-23 (10 months ago)
Launch vehicle
FALCON 9
Launch site
Air Force Western Test Range (AFWTR)
Object type
Payload
Rocket body
Debris
Shape & HBR
Box + 1 Pan, 17.7 m
Radar Cross Section
41.120 m², Large (>1 m²)

Expand to show TLE details & history
Last TLE update: 1 day ago

TLE from 1 day ago
0 STARLINK-35927
1 66624U 25271H   26264.78641809  .00017830  00000-0  53781-3 0  9990
2 66624  53.1588 307.4085 0001160  75.7441 284.3691 15.34387252 47610
Epoch: 2026-09-21T18:52Z
TLE epoch observation values (Epoch: 2026-09-21T18:52:26.522Z)
Latitude
0.00001°
Longitude
23.63675°
Altitude
463.445 km
Speed
7.636 km/s
True Right ascension
20h 29m 38s
True Declination
0° 00' 00"
Sunlit
Object was in full shadow at epoch
Visualization orbit readout
Latitude
Unknown
Longitude
Unknown
Altitude
Unknown
Speed
Unknown
Apparent Right ascension
Unknown
Apparent Declination
Unknown
Sunlit
N/A
Visualization observer readout
Local Sidereal Time
17:12:46
Azimuth
Unknown
Elevation
Unknown
Doppler factor
Unknown
Orbital elements
Apogee altitude
463.792 km
Perigee altitude
462.205 km
Semi-major axis
6,841.135 km
Eccentricity
0.00012
Inclination
53.1588°
RAAN
307.4085°
Arg. of periapsis
75.7441°
True anomaly
284.35622°
Mean anomaly
284.3691°
Eccentric anomaly
284.36266°
Mean motion
3.83576 °/min
Orbital period
93.85 mins
BSTAR
0.00053781
Loading maneuver chart data...
Computing Atmospheric mass density...
Loading historical data...
Loading historical data...
Loading historical data...
Loading historical data...
Loading historical data...
Loading historical data...
Loading historical data...

Documentation

Showing up to 5 results
|